Wind_Speed
10 11 12 11 11 12 14 15 16 17 18 19 21 22 24 26 27 29 32 34 36 37 38 39 39 40 41 42 43 44 45 46 46 46 47 46 45 43 41 39 39 39 39 40
8 10 11 11 12 14 15 16 17 17 19 21 23 24 25 27 28 30 32 34 35 37 38 40 40 41 42 43 45 46 47 47 47 47 47 46 44 41 40 39 39 39 40 41
8 9 9 11 12 14 14 15 16 18 20 23 24 25 26 27 28 30 32 34 36 38 39 40 41 42 43 45 46 47 48 49 49 49 47 45 43 41 40 40 39 40 41 42
10 9 10 10 13 14 16 17 17 19 21 24 25 25 26 27 29 31 33 35 37 39 40 40 42 43 44 46 47 48 49 49 50 49 48 45 43 42 41 40 40 41 41 41
13 12 11 13 14 15 17 18 19 21 24 26 26 27 27 29 31 32 35 37 39 40 40 41 42 44 45 47 47 48 49 49 50 49 47 45 43 41 40 40 40 40 40 40
15 14 13 11 12 16 18 20 21 23 24 26 27 29 29 31 32 34 36 38 40 40 41 42 43 44 45 47 47 48 48 49 49 49 47 45 43 41 40 40 40 39 38 38
19 18 18 17 19 19 21 22 23 23 24 26 27 28 30 32 33 35 37 38 40 41 42 43 44 44 46 46 47 47 48 49 49 49 48 45 43 41 40 40 39 38 37 37
22 22 23 22 23 23 24 24 24 24 24 26 27 29 30 32 35 37 38 39 40 41 42 43 45 45 46 46 46 47 48 49 49 49 48 45 43 41 40 40 38 37 36 36
22 22 23 23 24 25 26 26 25 25 25 26 27 29 31 33 36 39 40 40 41 41 43 44 45 45 45 46 46 47 48 49 49 49 47 45 42 41 40 39 38 37 35 35
24 23 24 24 24 26 27 27 26 26 26 27 28 30 32 35 38 40 41 42 42 43 44 45 45 45 45 45 46 47 47 48 48 48 46 44 42 41 40 39 37 36 34 33
25 24 24 23 24 26 27 28 28 28 29 30 31 32 34 36 39 41 42 43 43 44 45 46 46 45 46 46 46 47 47 47 48 47 45 43 41 40 39 37 36 34 32 31
27 26 26 25 25 26 28 29 30 32 33 34 36 37 38 39 41 42 43 44 44 46 47 48 48 47 47 46 46 46 46 46 46 46 44 42 40 39 38 36 35 33 31 29
30 29 28 28 29 30 31 32 33 35 37 39 40 41 41 42 43 44 44 45 46 47 49 50 50 49 48 48 47 46 45 45 45 44 43 40 38 37 36 35 33 31 29 26
31 30 30 30 32 33 34 35 36 37 39 40 42 43 43 43 44 45 46 47 48 49 51 52 51 51 50 49 47 46 45 44 44 42 41 39 37 35 34 32 31 29 27 24
31 31 32 33 35 37 38 39 40 40 41 42 43 44 45 45 45 47 48 49 50 52 53 53 52 52 51 49 47 45 43 42 42 40 39 37 36 34 32 31 29 28 26 22
32 33 34 35 36 38 39 41 42 43 44 45 46 47 48 48 49 50 50 50 52 54 54 54 54 53 51 48 45 43 41 40 40 38 37 35 34 32 30 28 28 27 25 21
34 34 35 37 38 40 42 44 46 47 47 48 49 50 51 52 52 52 52 51 52 54 55 55 54 52 50 47 44 41 39 39 38 37 35 33 31 30 28 27 26 25 23 20
36 36 37 39 41 43 46 47 49 50 50 51 52 53 54 55 55 55 54 54 55 55 55 54 52 50 47 45 42 40 38 37 36 35 33 31 29 28 27 25 24 24 22 20
40 40 42 43 44 46 47 49 51 53 53 54 55 55 57 58 58 57 56 55 54 53 52 51 50 48 45 42 40 38 36 35 34 33 31 29 27 26 25 23 22 22 22 19
44 45 46 47 48 49 51 53 55 56 58 58 59 59 60 60 58 56 55 53 51 51 50 49 47 44 42 39 38 36 33 32 32 31 29 27 25 23 23 21 20 20 20 19
50 50 51 52 52 53 55 56 57 59 60 61 61 61 60 58 56 54 53 51 49 48 47 45 43 40 38 36 35 33 31 30 30 29 27 25 23 21 20 19 19 19 19 19
54 53 53 54 54 55 57 59 61 62 62 62 61 59 57 55 53 51 50 48 46 45 44 42 39 37 34 33 32 30 30 28 28 27 25 23 21 19 18 17 17 18 18 18
54 54 55 55 57 58 60 62 63 62 61 59 57 56 54 52 51 49 46 45 43 41 39 38 36 34 31 29 29 28 27 26 25 25 23 22 20 18 16 15 15 16 17 17
56 57 58 59 60 60 60 61 60 60 58 57 56 54 53 51 48 46 43 41 39 37 36 35 33 31 29 27 26 26 24 23 23 22 21 20 18 16 14 12 12 13 15 17
59 60 60 60 60 59 59 59 59 58 57 55 54 52 51 48 46 43 40 38 37 35 34 32 31 29 26 25 24 23 22 21 21 20 19 18 16 14 12 10 10 11 12 14
62 62 61 61 61 60 60 59 58 57 55 54 52 50 47 45 43 41 38 37 36 35 33 31 29 27 24 24 23 21 20 19 19 18 17 16 15 13 10 9 8 8 9 10
64 64 63 63 62 62 61 60 59 56 54 51 49 46 44 41 39 37 36 35 34 33 31 28 26 24 22 21 21 19 18 18 17 16 15 14 13 11 9 7 6 6 6 7
Wind_Direction
290 291 294 298 294 299 310 317 321 323 327 330 325 321 320 320 320 320 322 324 325 327 331 334 335 335 336 335 335 334 333 333 331 330 327 324 320 316 311 307 304 300 297 294
293 290 292 293 293 293 303 312 316 320 325 323 320 318 319 319 318 317 319 322 324 328 333 335 335 335 335 335 335 335 334 334 333 331 329 325 322 317 314 310 307 303 300 298
325 313 307 293 289 290 297 303 310 317 318 315 315 315 316 315 314 316 319 323 326 329 332 333 334 334 334 334 334 334 334 334 334 333 330 327 323 319 316 314 310 307 305 302
326 320 314 300 296 294 296 299 307 310 309 309 310 312 313 314 315 319 322 325 327 329 330 331 332 333 333 333 333 334 334 334 334 334 332 329 325 321 319 317 314 312 308 306
326 323 315 306 303 300 299 302 308 307 308 309 311 314 316 317 318 320 323 326 326 327 328 329 330 331 332 333 333 334 335 335 335 335 333 330 326 323 321 320 318 316 312 309
331 330 327 326 312 304 303 306 306 306 308 309 311 313 316 317 319 321 323 325 325 325 326 328 330 331 331 332 333 335 335 336 336 335 334 331 328 326 324 323 321 319 316 314
326 326 325 326 322 320 318 315 311 310 308 307 308 311 315 317 318 320 322 323 324 324 326 327 328 329 330 331 333 335 336 336 336 336 335 333 330 328 327 326 325 322 320 318
314 314 315 317 317 317 317 316 313 309 307 306 308 311 314 316 317 319 321 322 323 324 325 326 327 327 329 331 333 334 336 336 336 336 336 335 332 331 330 330 328 326 324 324
301 305 307 309 311 311 311 311 310 308 307 307 307 309 312 315 316 317 319 321 322 324 324 325 326 327 328 331 332 334 335 336 336 336 336 336 334 333 333 332 331 330 328 328
297 301 302 303 304 304 304 306 307 307 306 305 306 309 312 313 315 316 318 321 322 323 324 324 324 326 328 330 332 333 335 336 336 336 336 336 335 335 335 335 333 333 333 333
291 295 296 296 296 297 300 302 304 304 305 306 307 309 311 313 315 316 318 320 322 322 323 324 324 325 327 329 331 332 333 335 335 336 336 336 336 336 337 337 337 337 337 337
289 293 295 296 295 295 297 299 301 303 305 306 308 310 312 314 315 316 318 320 320 321 322 323 325 325 326 327 329 330 332 333 334 335 336 336 337 337 339 339 340 340 340 340
289 292 293 293 293 294 296 298 300 303 305 306 308 310 312 314 316 317 317 318 319 320 321 322 324 325 325 325 327 328 330 331 332 333 335 336 337 339 341 341 342 342 342 343
284 287 289 289 290 291 293 295 298 300 301 304 306 308 311 313 315 315 316 316 317 319 320 321 323 324 324 324 325 325 327 328 330 332 334 335 337 339 342 344 345 345 344 345
280 282 285 286 287 290 292 295 297 299 302 305 307 309 310 312 314 313 312 312 314 316 318 319 320 322 322 322 323 323 323 325 328 331 333 335 337 340 342 345 347 348 347 347
283 283 284 286 288 290 294 297 300 302 304 306 308 309 310 311 311 311 310 309 310 313 315 316 317 318 320 320 320 320 321 323 326 329 332 333 336 339 342 345 347 348 349 348
287 286 287 288 289 292 294 296 298 300 301 303 305 306 307 308 309 309 308 307 309 310 312 313 314 315 316 317 318 318 319 321 324 327 330 332 334 338 342 345 347 349 350 350
287 286 286 286 286 288 290 292 294 295 297 299 300 302 303 305 307 307 306 306 307 309 309 311 312 313 314 314 315 316 317 319 321 324 327 329 332 336 341 344 347 350 352 351
283 283 283 283 284 285 287 289 291 293 295 297 298 299 301 303 304 305 305 306 307 307 308 308 309 310 311 312 313 314 316 316 318 322 325 327 329 334 340 343 347 350 353 353
279 279 280 282 283 284 285 287 288 289 291 292 294 296 298 300 302 303 303 304 305 305 305 306 306 307 309 310 312 314 314 316 317 320 323 325 328 333 338 342 346 349 355 357
282 283 283 284 284 284 285 285 286 286 288 290 292 295 297 299 300 301 301 302 303 303 303 303 303 305 306 307 309 311 311 313 316 319 322 324 326 331 337 342 346 349 353 356
286 287 286 286 286 284 284 283 284 285 287 289 291 293 295 296 297 298 299 300 300 300 301 300 301 302 303 304 306 308 309 311 313 317 320 322 324 328 335 342 347 350 352 355
286 285 283 282 281 280 280 281 283 285 287 289 290 292 293 294 295 296 297 297 296 296 298 298 298 298 299 300 302 304 306 308 310 315 318 320 321 324 330 339 347 352 356 358
282 280 280 279 280 281 282 284 286 287 288 289 290 291 292 293 294 294 294 294 293 293 293 294 295 296 296 295 297 300 303 305 307 312 315 316 317 319 325 332 342 351 355 359
279 280 281 282 283 284 284 285 286 288 289 290 291 291 292 292 292 292 290 289 289 289 289 290 290 290 289 290 293 296 298 300 303 308 312 312 312 314 318 324 333 344 353 1
284 285 285 286 286 286 287 287 288 289 290 290 290 290 289 289 288 287 286 285 285 283 283 285 284 282 283 285 288 292 293 295 299 304 307 307 307 307 308 313 326 339 350 1
285 285 286 286 287 288 288 289 289 290 290 290 289 288 287 285 284 283 282 282 282 280 280 278 275 275 277 280 284 286 287 289 292 298 302 302 301 299 296 296 310 331 349 3
Height
5860 5858 5857 5856 5855 5853 5852 5850 5848 5846 5844 5842 5839 5836 5834 5830 5826 5822 5818 5813 5808 5803 5796 5789 5781 5774 5766 5759 5751 5743 5735 5726 5718 5709 5700 5691 5683 5675 5668 5662 5656 5651 5646 5641
5857 5855 5854 5853 5852 5851 5849 5847 5845 5843 5842 5839 5836 5833 5830 5826 5822 5818 5813 5809 5803 5797 5790 5782 5775 5767 5760 5752 5744 5735 5727 5718 5709 5700 5691 5681 5673 5665 5658 5651 5645 5639 5634 5628
5855 5853 5852 5851 5850 5848 5846 5844 5843 5841 5839 5836 5833 5829 5826 5822 5818 5813 5809 5803 5797 5790 5783 5776 5769 5761 5753 5745 5736 5728 5719 5710 5700 5691 5681 5672 5663 5655 5648 5641 5634 5627 5621 5614
5852 5851 5849 5849 5846 5844 5842 5841 5840 5838 5835 5832 5829 5826 5822 5818 5813 5808 5802 5796 5790 5784 5777 5770 5762 5754 5746 5738 5729 5720 5711 5701 5692 5682 5673 5663 5654 5645 5637 5630 5623 5615 5608 5601
5848 5846 5845 5845 5842 5840 5839 5837 5835 5833 5829 5826 5822 5819 5815 5811 5806 5801 5796 5790 5784 5777 5770 5763 5756 5748 5739 5731 5722 5713 5703 5694 5684 5674 5665 5655 5645 5636 5628 5620 5612 5604 5596 5589
5844 5842 5841 5842 5839 5836 5835 5832 5830 5827 5824 5820 5816 5812 5809 5805 5800 5794 5789 5783 5777 5770 5764 5756 5749 5741 5732 5724 5715 5705 5696 5686 5676 5666 5656 5646 5637 5627 5619 5610 5602 5594 5586 5578
5840 5838 5836 5836 5833 5831 5829 5828 5824 5821 5818 5814 5810 5807 5803 5798 5793 5788 5783 5777 5770 5763 5756 5749 5742 5734 5725 5716 5707 5698 5688 5679 5668 5658 5648 5638 5628 5619 5610 5602 5593 5585 5577 5568
5837 5834 5834 5830 5827 5826 5824 5821 5818 5814 5811 5808 5804 5800 5796 5792 5787 5781 5776 5770 5764 5757 5749 5742 5734 5727 5718 5709 5700 5691 5681 5671 5661 5651 5640 5630 5621 5611 5602 5593 5584 5576 5567 5559
5834 5832 5829 5825 5822 5820 5817 5814 5811 5808 5804 5801 5797 5794 5790 5786 5780 5774 5769 5763 5756 5749 5742 5735 5727 5719 5711 5702 5693 5683 5673 5664 5654 5643 5633 5623 5613 5604 5595 5585 5577 5568 5560 5551
5827 5825 5823 5820 5817 5814 5811 5808 5804 5801 5798 5795 5791 5788 5784 5779 5773 5767 5761 5755 5748 5741 5734 5727 5719 5711 5703 5694 5685 5676 5667 5657 5647 5637 5626 5616 5607 5597 5588 5579 5570 5562 5553 5545
5821 5819 5817 5815 5811 5808 5804 5801 5797 5794 5791 5788 5784 5781 5777 5772 5766 5759 5753 5747 5740 5733 5726 5719 5711 5703 5695 5686 5678 5669 5659 5650 5640 5631 5621 5611 5601 5592 5583 5574 5565 5557 5549 5541
5813 5812 5809 5806 5803 5800 5797 5794 5790 5787 5784 5780 5776 5773 5768 5763 5758 5751 5744 5738 5731 5725 5717 5710 5703 5695 5687 5678 5670 5662 5653 5644 5634 5625 5615 5606 5596 5587 5577 5569 5561 5553 5545 5538
5804 5802 5800 5798 5794 5792 5789 5786 5783 5779 5775 5771 5767 5763 5759 5754 5748 5742 5735 5729 5723 5716 5708 5701 5693 5686 5678 5670 5662 5654 5646 5638 5629 5620 5611 5601 5592 5583 5575 5566 5558 5550 5543 5536
5796 5794 5792 5789 5786 5783 5780 5778 5774 5771 5767 5763 5758 5754 5750 5745 5739 5732 5726 5720 5713 5706 5699 5691 5684 5676 5669 5661 5654 5646 5639 5631 5623 5614 5606 5597 5588 5579 5571 5563 5556 5548 5541 5535
5788 5785 5783 5780 5777 5774 5771 5768 5764 5761 5757 5753 5748 5744 5739 5734 5729 5722 5716 5709 5702 5696 5689 5682 5674 5667 5660 5653 5646 5639 5632 5625 5617 5609 5601 5593 5584 5576 5568 5561 5553 5546 5540 5534
5779 5776 5773 5770 5767 5764 5760 5757 5753 5749 5746 5742 5737 5733 5728 5723 5718 5712 5706 5699 5692 5686 5679 5672 5665 5658 5651 5644 5637 5631 5624 5618 5611 5604 5596 5588 5581 5573 5566 5558 5552 5545 5538 5533
5769 5766 5763 5760 5757 5753 5750 5746 5742 5739 5735 5731 5727 5722 5717 5712 5707 5701 5695 5688 5682 5676 5669 5663 5656 5649 5642 5636 5630 5623 5617 5611 5605 5598 5591 5584 5577 5570 5563 5556 5550 5543 5537 5532
5756 5754 5751 5749 5746 5742 5739 5735 5731 5726 5723 5719 5715 5711 5706 5701 5696 5690 5684 5677 5671 5665 5658 5652 5646 5639 5633 5627 5621 5616 5610 5605 5599 5593 5587 5580 5574 5567 5561 5554 5548 5542 5537 5531
5743 5741 5738 5736 5733 5730 5726 5723 5719 5714 5710 5706 5702 5697 5693 5688 5683 5677 5671 5665 5659 5653 5647 5641 5635 5629 5624 5618 5613 5608 5603 5598 5593 5588 5582 5576 5570 5564 5558 5553 5547 5541 5536 5531
5731 5729 5726 5724 5721 5718 5714 5710 5706 5701 5696 5691 5687 5683 5679 5674 5669 5664 5658 5653 5647 5641 5635 5630 5624 5619 5614 5610 5605 5601 5596 5591 5587 5582 5577 5572 5567 5561 5556 5551 5546 5541 5535 5530
5718 5716 5713 5710 5707 5704 5700 5695 5691 5686 5681 5677 5672 5668 5664 5660 5655 5650 5645 5640 5635 5628 5623 5618 5614 5609 5605 5602 5598 5594 5589 5585 5581 5577 5573 5568 5563 5559 5554 5549 5544 5540 5535 5530
5702 5700 5697 5694 5691 5687 5682 5677 5673 5669 5665 5661 5657 5653 5649 5645 5641 5636 5631 5627 5622 5616 5612 5607 5603 5600 5597 5593 5590 5587 5583 5579 5576 5572 5568 5564 5560 5556 5552 5548 5543 5539 5534 5530
5685 5682 5678 5674 5670 5666 5662 5658 5654 5651 5648 5645 5641 5637 5634 5630 5626 5622 5618 5614 5609 5605 5601 5597 5593 5590 5588 5585 5583 5580 5577 5573 5570 5567 5564 5560 5557 5553 5550 5546 5543 5539 5534 5530
5664 5660 5657 5653 5650 5647 5643 5640 5636 5633 5630 5627 5624 5620 5617 5614 5611 5607 5603 5600 5596 5593 5590 5587 5584 5582 5580 5577 5575 5572 5570 5567 5565 5562 5559 5556 5554 5551 5548 5545 5542 5538 5534 5530
5643 5640 5637 5634 5631 5628 5625 5622 5619 5616 5613 5610 5607 5604 5601 5598 5595 5592 5589 5587 5584 5581 5579 5577 5575 5573 5571 5570 5567 5565 5563 5561 5559 5557 5555 5553 5550 5548 5546 5543 5541 5538 5535 5532
5623 5620 5617 5614 5611 5608 5605 5603 5600 5598 5595 5593 5590 5587 5585 5582 5580 5577 5575 5573 5571 5570 5568 5567 5565 5564 5563 5562 5560 5558 5557 5556 5554 5553 5551 5549 5547 5545 5544 5542 5540 5538 5535 5533
5603 5600 5597 5594 5591 5588 5586 5583 5581 5579 5577 5575 5573 5571 5569 5567 5565 5563 5562 5560 5559 5558 5557 5556 5556 5555 5554 5554 5553 5552 5551 5550 5549 5548 5546 5545 5544 5542 5541 5540 5539 5537 5536 5534